Weather History for Nome, AK

Change the Weather History Date:

Saturday, May 4, 2013

  Actual Average Record
Temperature  
Mean Temperature 20 °F 31 °F  
Max Temperature 31 °F 37 °F 49 °F (1969)
Min Temperature 8 °F 25 °F -4 °F (1984)
Degree Days  
Heating Degree Days 45 34  
Month to date heating degree days 185 138  
Since 1 July heating degree days 12926 12451  
Cooling Degree Days 0    
Month to date cooling degree days 0  
Year to date cooling degree days 0  
Moisture  
Dew Point 14 °F    
Average Humidity 0    
Maximum Humidity 0    
Minimum Humidity 0    
Precipitation  
Precipitation T in 0.03 in 0.53 in (1952)
Month to date precipitation T 0.11  
Year to date precipitation 2.46 3.39  
Snow  
Snow T in 0.10 in 4.20 in (1952)
Month to date snowfall T 0.5  
Since 1 July snowfall 54.9 73.6  
Snow Depth 6.00 in    
Sea Level Pressure  
Sea Level Pressure 30.14 in    
Wind  
Wind Speed 5 mph (WSW)    
Max Wind Speed 17 mph    
Max Gust Speed 22 mph    
Visibility 10 miles    
Events Snow    
T = Trace of Precipitation, MM = Missing Value Source: NWS Daily Summary

Daily Weather History Graph

Daily Weather History Graph

Search for Another Location

Airport:

Trip Planner

Search our weather history database for the weather conditions in past years. The results will help you decide how hot, cold, wet, or windy it might be!

Date:

Astronomy

May. 04, 2013 Rise Set
Actual Time 6:18 AM AKDT 11:40 PM AKDT
Civil Twilight 5:01 AM AKDT 12:59 AM AKDT
Nautical Twilight Sun does not rise Sun does not rise
Astronomical Twilight Sun does not rise Sun does not rise
Moon 5:19 AM AKDT (5/4) 5:05 PM AKDT (5/4)
Length of Visible Light 19h 57m
Length of Day
17h 21m
Waning Crescent, 25% of the Moon is Illuminated
May 4
Waning Crescent
May 9
New
May 17
First Quarter
May 24
Full
May 31
Last Quarter

Hourly Weather History & Observations

Time (AKDT) Temp. Windchill Dew Point Humidity Pressure Visibility Wind Dir Wind Speed Gust Speed Precip Events Conditions
12:53 AM 19.0 °F - 15.1 °F 85% 30.17 in 10.0 mi Calm Calm - N/A   Scattered Clouds
1:53 AM 19.0 °F - 14.0 °F 81% 30.17 in 10.0 mi Calm Calm - N/A   Scattered Clouds
2:53 AM 17.1 °F - 12.9 °F 84% 30.16 in 10.0 mi Calm Calm - N/A   Scattered Clouds
3:53 AM 16.0 °F - 12.0 °F 84% 30.15 in 10.0 mi Calm Calm - N/A   Scattered Clouds
4:53 AM 12.9 °F 5.2 °F 10.0 °F 88% 30.14 in 10.0 mi West 4.6 mph - N/A   Partly Cloudy
5:53 AM 10.0 °F - 7.0 °F 87% 30.14 in 10.0 mi Calm Calm - N/A   Partly Cloudy
6:53 AM 10.0 °F - 6.1 °F 84% 30.13 in 10.0 mi Calm Calm - N/A   Partly Cloudy
7:53 AM 12.0 °F - 8.1 °F 84% 30.12 in 10.0 mi Calm Calm - N/A   Partly Cloudy
8:53 AM 12.9 °F - 7.0 °F 77% 30.12 in 10.0 mi Calm Calm - N/A   Scattered Clouds
9:53 AM 19.0 °F - 12.9 °F 77% 30.12 in 10.0 mi Calm Calm - N/A   Scattered Clouds
10:53 AM 19.0 °F - 14.0 °F 81% 30.12 in 10.0 mi Calm Calm - N/A   Scattered Clouds
11:53 AM 19.9 °F 13.4 °F 14.0 °F 78% 30.12 in 10.0 mi Variable 4.6 mph - N/A   Partly Cloudy
12:53 PM 21.0 °F 14.6 °F 14.0 °F 74% 30.13 in 10.0 mi South 4.6 mph - N/A   Scattered Clouds
1:53 PM 21.9 °F 17.2 °F 17.1 °F 82% 30.14 in 10.0 mi SSW 3.5 mph - N/A   Scattered Clouds
2:53 PM 23.0 °F 18.4 °F 12.0 °F 63% 30.14 in 10.0 mi WSW 3.5 mph - N/A   Scattered Clouds
3:53 PM 25.0 °F 18.1 °F 10.9 °F 55% 30.13 in 10.0 mi WSW 5.8 mph - N/A   Scattered Clouds
4:53 PM 28.0 °F 18.6 °F 16.0 °F 61% 30.14 in 10.0 mi West 10.4 mph - N/A   Partly Cloudy
5:53 PM 30.0 °F 20.0 °F 18.0 °F 61% 30.14 in 10.0 mi West 12.7 mph - N/A   Scattered Clouds
6:53 PM 30.0 °F 19.5 °F 19.9 °F 66% 30.14 in 10.0 mi West 13.8 mph - N/A   Scattered Clouds
7:53 PM 28.9 °F 18.6 °F 19.9 °F 69% 30.13 in 10.0 mi WNW 12.7 mph - N/A   Scattered Clouds
8:53 PM 28.0 °F 18.6 °F 19.0 °F 69% 30.14 in 10.0 mi West 10.4 mph - N/A   Mostly Cloudy
9:53 PM 28.0 °F 20.0 °F 19.0 °F 69% 30.14 in 10.0 mi West 8.1 mph - N/A   Overcast
10:53 PM 27.0 °F 20.5 °F 19.9 °F 75% 30.14 in 10.0 mi West 5.8 mph - N/A   Overcast
11:14 PM 26.6 °F 20.0 °F 21.2 °F 80% 30.14 in 10.0 mi WSW 5.8 mph - 0.00 in Snow Light Snow
11:53 PM 27.0 °F 19.5 °F 24.1 °F 89% 30.16 in 8.0 mi WSW 6.9 mph - 0.00 in Snow Light Snow